Track STARLINK-4022 now! 10-day predictions STARLINK-4022 is classified as:
1 52629U 22052AH 22224.58334491 -.00040231 00000-0 -25217-2 0 9995 2 52629 53.2186 7.9569 0001369 68.4870 289.2781 15.08871681 1305